Regional Weather Roundup
Issued by NWS Sterling, VA

Home | Current Version | Previous Version | Graphics & Text | Print | Product List | Glossary On
Versions: 1 2 3 4 5 6 7 8 9 10 11 12 13 14 15 16 17 18 19 20 21 22 23 24 25 26 27 28 29 30 31 32 33 34 35 36 37 38 39 40 41 42 43 44 45 46 47
000
ASUS41 KLWX 011410
RWRLWX

REGIONAL WEATHER ROUNDUP
NATIONAL WEATHER SERVICE BALTIMORE MD/WASHINGTON DC
900 AM EST SUN MAR 01 2015

Note: "FAIR" indicates few or no clouds below 12,000 feet
with no significant weather and/or obstructions to visibility.
 TC=TEMPERATURE CELSIUS

 * =Non NWS site. Station does not report precipitation (e.g. rain,
    snow, etc.), thunder, or fog.

DCZ001-MDZ009-015-VAZ040>042-051-053>054-011500-
WASHINGTON METRO

CITY           SKY/WX    TMP DP  RH WIND       PRES   REMARKS
WASHINGTON NAT SLEET     28  19  69 S8        30.66F WCI  20
DULLES         FLURRIES  25  13  60 S5        30.63R
ANDREWS AFB    SLEET     25  18  72 S6        30.64S
FT BELVOIR     MIX PCPN  26  20  78 SE3       30.66R
QUANTICO       FRZ RAIN  27  21  78 S8        30.67S WCI  19
COLLEGE PARK*  CLOUDY    28  19  69 S3        30.66R
LEESBURG*      LGT SNOW  27  21  80 S8        30.63F WCI  18
MANASSAS*      CLOUDY    27  19  74 S3        30.65
GAITHERSBURG*  CLOUDY    25  12  58 S3        30.66R

$$

MDZ006>007-011-014-011500-
BALTIMORE METRO

CITY           SKY/WX    TMP DP  RH WIND       PRES   REMARKS
BWI AIRPORT    LGT SNOW  24  14  65 CALM      30.65S
MD SCIENCE CTR   N/A      1  32 100 MISG      30.65F
MARTIN STATE   CLOUDY    25  18  74 CALM      30.67S
ANNAPOLIS      LGT SNOW  26  22  84 S6        30.66S FOG
FORT MEADE*    CLOUDY    25  16  68 CALM      30.68R

$$

MDZ012-015-019>023-011500-
MARYLAND EASTERN SHORE

CITY           SKY/WX    TMP DP  RH WIND       PRES   REMARKS
OCEAN CITY     CLOUDY    29  21  72 NW5       30.68R
SALISBURY      CLOUDY    29  16  58 CALM      30.68R
BAY BRIDGE AP* FLURRIES  27  18  69 S6        30.67S
CAMBRIDGE*     CLOUDY    28  18  64 SE5       30.67F
EASTON*        LGT SNOW  28  19  69 CALM      30.70

$$

MDZ017>025-011500-
SOUTHERN MARYLAND

CITY           SKY/WX    TMP DP  RH WIND       PRES   REMARKS
PATUXENT RIVER SLEET     27  18  69 SE7       30.66F FOG
ST INIGOES     MIX PCPN  28  21  75 E3        30.66S
LEONARDTOWN*   CLOUDY    27  21  80 SE5       30.67F

$$

MDZ003>005-011500-
NORTH CENTRAL MARYLAND

CITY           SKY/WX    TMP DP  RH WIND       PRES   REMARKS
FREDERICK*     LGT SNOW  23  16  74 CALM      30.65S VSB 1
HAGERSTOWN APT LGT SNOW  23  19  85 S7        30.54F VSB 1
WESTMINSTER*   LGT SNOW  23  18  80 S9        30.58R VSB 3/4 WCI  13

$$

MDZ501>502-011500-
WESTERN MARYLAND

CITY           SKY/WX    TMP DP  RH WIND       PRES   REMARKS
OAKLAND*       CLOUDY    28 N/A N/A S12       30.34S WCI  18
CUMBERLAND*    PTSUNNY   27  21  80 CALM      30.55F

$$

VAZ025>031-011500-
SHENANDOAH VALLEY

CITY           SKY/WX    TMP DP  RH WIND       PRES   REMARKS
WINCHESTER*    LGT SNOW  28  14  54 S3        30.55F
FRONT ROYAL*   CLOUDY    27  18  69 CALM      30.55F
LURAY*         FLURRIES  32  21  64 SW3       30.53F
NEW MARKET*    CLOUDY    26  16  66 CALM      30.52F
STAUNTON*      MIX PCPN  29  17  61 SW6       30.54S
WAYNESBORO*    CLOUDY    27  17  65 CALM      30.50F

$$

WVZ021-048>050-054>055-011500-
EASTERN WEST VIRGINIA PANHANDLE

CITY           SKY/WX    TMP DP  RH WIND       PRES   REMARKS
MARTINSBURG    LGT SNOW  24  19  81 SE6       30.55F
PETERSBURG*    NOT AVBL

$$

VAZ036>039-050-011500-
CENTRAL FOOTHILLS

CITY           SKY/WX    TMP DP  RH WIND       PRES   REMARKS
CHARLOTTESVILL LGT RAIN  26  17  68 S3        30.59F
CULPEPER*      MIX PCPN  28  21  74 SE3       30.63S
ORANGE*        MIX PCPN  28  21  74 CALM      30.63F
GORDONSVILLE*  CLOUDY    26  18  72 CALM      30.61F
WARRENTON*     MIX PCPN  28  25  88 S3        30.62F

$$

VAZ055>057-011500-
NORTH AND CENTRAL PIEDMONT

CITY           SKY/WX    TMP DP  RH WIND       PRES   REMARKS
FREDERICKSBRG* MIX PCPN  28  24  87 S5        30.65F
STAFFORD*      MIX PCPN  26  22  85 SE6       30.69S

$$

NCZ024-NYZ072-PAZ021-071-VAZ022-071-011500-
OTHER REGIONAL OBSERVATIONS

CITY           SKY/WX    TMP DP  RH WIND       PRES   REMARKS
NEW YORK CITY  CLOUDY    30   3  31 S7        30.65F
PHILADELPHIA   CLOUDY    26   9  48 S5        30.66F
PITTSBURGH     LGT SNOW  30  28  92 S6        30.37S VSB 1
ROANOKE        CLOUDY    28  13  53 SE5       30.57F
RICHMOND       FRZ DRZL  29  18  63 NE3       30.63F
RALEIGH        FRZ RAIN  31  28  89 NE7       30.58F FOG

$$

ANZ530>537-011500-
MARINE OBSERVATIONS

STATION/POSITION TIME  TEMP    WIND        PRES
                       AIR SEA DIR/SP/G
                 (UTC) (F)     (DEG/KT/KT) (MB)
THOMAS PT LIGHT  1400   26 31  170/ 11/ 13 1039.3F
BALT KEY BRIDGE  1300   24      90/  3/  4 1038.3F
COVE POINT       1300   26     170/  7/  7 1038.3R
LEWISETTA        1300   29 33              1038.5R
SOLOMONS ISLAND  1300      32                N/A

$$



USA.gov is the U.S. government's official web portal to all federal, state and local government web resources and services.